Terminal Aerodrome Forecast
Issued by NWS Upton, NY

Home | Current Version | Previous Version | Text Only | Print | Product List | Glossary On
Versions: 1 2 3 4 5 6 7 8 9 10 11 12 13 14 15 16 17 18 19 20 21 22 23 24 25 26 27 28 29 30
000
FTUS41 KOKX 271400 AAA
TAFLGA
TAF AMD
KLGA 271446Z 2715/2812 34022G30KT 3/4SM -SN OVC010
     FM271600 34024G34KT 1SM -SN BLSN OVC015
     FM272200 33020G33KT 2SM -SN BLSN OVC020
     FM280200 33017G27KT 2SM -SHSN OVC035
     FM280500 33015G23KT P6SM SCT040 SCT100=

USA.gov is the U.S. government's official web portal to all federal, state and local government web resources and services.